{"data":{"norad_id":63420,"intl_designator":"2025-065X","name":"STARLINK-33698","alt_names":[],"object_type":"PAYLOAD","status":"ACTIVE","operator":null,"country":"US","launch_date":"2025-03-31","launch_site_code":"AFETR","launch_vehicle":null,"mission":null,"orbit_class":"UNKNOWN","rcs_meters":null,"size_class":null,"mass_kg":null,"dimensions":null,"purposes":["comms"],"wikipedia_slug":null,"has_3d_model":false,"image_url":null,"decayed_at":null,"tle_current":{"epoch":"2026-05-24T23:57:34.396992Z","epoch_age_seconds":65450,"freshness":"FRESH","line1":"1 63420U 25065X   26144.99831478  .00026183  00000+0  95699-3 0  9999","line2":"2 63420  43.0032  35.7767 0001409 273.4002  86.6688 15.27601335 64517","mean_motion":15.27601335,"eccentricity":0.0001409,"inclination_deg":43.0032,"raan_deg":35.7767,"arg_perigee_deg":273.4002,"mean_anomaly_deg":86.6688,"bstar":0.00095699,"rev_number":6451,"period_min":94.265432152166,"perigee_km":482.01847999827,"apogee_km":483.95194423765,"semimajor_km":6861.122212118,"source":"CELESTRAK","updated_at":"2026-05-25T13:38:19.973291Z"}}}